Change the Weather History Date:

Friday, August 2, 2013

  Actual Average Record
Temperature  
Mean Temperature 58 °F -  
Max Temperature 75 °F 79 °F 98 °F (1989)
Min Temperature 42 °F 53 °F 6 °F (1997)
Degree Days  
Heating Degree Days 6    
Growing Degree Days 8 (Base 50)    
Moisture  
Dew Point 47 °F    
Average Humidity 67    
Maximum Humidity 93    
Minimum Humidity 36    
Precipitation  
Precipitation 0.00 in - - ()
Sea Level Pressure  
Sea Level Pressure 30.00 in    
Wind  
Wind Speed 3 mph (NNW)    
Max Wind Speed 13 mph    
Max Gust Speed 18 mph    
Visibility 9 miles    
Events Fog    
Averages and records for this station are not official NWS values.
T = Trace of Precipitation, MM = Missing Value Source: NWS Daily Summary

Daily Weather History Graph

Daily Weather History Graph

Search for Another Location

Airport or City:

Trip Planner

Search our weather history database for the weather conditions in past years. The results will help you decide how hot, cold, wet, or windy it might be!

Date:

Astronomy

Aug. 02, 2013 Rise Set
Actual Time 6:02 AM CDT 8:55 PM CDT
Civil Twilight 5:26 AM CDT 9:31 PM CDT
Nautical Twilight 4:40 AM CDT 10:16 PM CDT
Astronomical Twilight 3:45 AM CDT 11:11 PM CDT
Moon 2:20 AM CDT (8/2) 5:57 PM CDT (8/2)
Length of Visible Light 16h 04m
Length of Day
14h 53m
Waning Crescent, 15% of the Moon is Illuminated
Aug 2
Waning Crescent
Aug 6
New
Aug 14
First Quarter
Aug 20
Full
Aug 28
Last Quarter

Hourly Weather History & Observations

Time (CDT) Temp. Dew Point Humidity Pressure Visibility Wind Dir Wind Speed Gust Speed Precip Events Conditions
12:15 AM 50.0 °F 46.4 °F 87% 29.93 in 10.0 mi Calm Calm - N/A   Unknown
12:35 AM 48.2 °F 42.8 °F 82% 29.93 in 10.0 mi Calm Calm - N/A   Unknown
12:55 AM 48.2 °F 42.8 °F 82% 29.93 in 10.0 mi Calm Calm - N/A   Unknown
1:15 AM 48.2 °F 44.6 °F 87% 29.92 in 10.0 mi Calm Calm - N/A   Clear
1:35 AM 48.2 °F 42.8 °F 82% 29.93 in 10.0 mi Calm Calm - N/A   Clear
1:55 AM 46.4 °F 42.8 °F 87% 29.92 in 10.0 mi Calm Calm - N/A   Clear
2:15 AM 46.4 °F 42.8 °F 87% 29.92 in 10.0 mi Calm Calm - N/A   Clear
2:35 AM 48.2 °F 44.6 °F 87% 29.92 in 10.0 mi Calm Calm - N/A   Clear
2:55 AM 46.4 °F 42.8 °F 87% 29.92 in 7.0 mi Calm Calm - N/A   Clear
3:15 AM 44.6 °F 42.8 °F 93% 29.93 in 10.0 mi Calm Calm - N/A   Clear
3:35 AM 44.6 °F 42.8 °F 93% 29.93 in 10.0 mi Calm Calm - N/A   Clear
3:55 AM 44.6 °F 41.0 °F 87% 29.93 in 10.0 mi Calm Calm - N/A   Clear
4:15 AM 44.6 °F 41.0 °F 87% 29.94 in 7.0 mi Calm Calm - N/A   Clear
4:35 AM 44.6 °F 41.0 °F 87% 29.94 in 7.0 mi Calm Calm - N/A   Clear
4:55 AM 44.6 °F 41.0 °F 87% 29.95 in 3.0 mi Calm Calm - N/A   Clear
5:15 AM 44.6 °F 41.0 °F 87% 29.95 in 1.0 mi Calm Calm - N/A   Mist
5:35 AM 42.8 °F 39.2 °F 87% 29.95 in 0.5 mi Calm Calm - N/A Fog Fog
5:55 AM 42.8 °F 39.2 °F 87% 29.96 in 0.2 mi Calm Calm - N/A Fog Fog
6:15 AM 42.8 °F 39.2 °F 87% 29.97 in 0.2 mi Calm Calm - N/A Fog Fog
6:35 AM 42.8 °F 39.2 °F 87% 29.97 in 0.2 mi Calm Calm - N/A Fog Fog
6:55 AM 44.6 °F 42.8 °F 93% 29.97 in 0.5 mi Calm Calm - N/A Fog Fog
7:15 AM 48.2 °F 44.6 °F 87% 29.97 in 7.0 mi Calm Calm - N/A   Scattered Clouds
7:35 AM 53.6 °F 50.0 °F 88% 29.97 in 10.0 mi Calm Calm - N/A   Clear
7:55 AM 55.4 °F 51.8 °F 88% 29.98 in 10.0 mi Calm Calm - N/A   Clear
8:15 AM 57.2 °F 53.6 °F 88% 29.99 in 10.0 mi Calm Calm - N/A   Clear
8:35 AM 59.0 °F 53.6 °F 82% 29.99 in 10.0 mi Calm Calm - N/A   Clear
8:55 AM 60.8 °F 53.6 °F 77% 29.99 in 10.0 mi North 6.9 mph - N/A   Clear
9:15 AM 62.6 °F 55.4 °F 77% 29.98 in 10.0 mi NNE 6.9 mph - N/A   Clear
9:36 AM 64.4 °F 53.6 °F 68% 29.99 in 10.0 mi North 10.4 mph - N/A   Clear
9:55 AM 66.2 °F 53.6 °F 64% 30.00 in 10.0 mi North 6.9 mph - N/A   Clear
10:15 AM 66.2 °F 51.8 °F 60% 30.01 in 10.0 mi North 10.4 mph 17.3 mph N/A   Clear
10:36 AM 68.0 °F 51.8 °F 56% 30.01 in 10.0 mi North 11.5 mph 16.1 mph N/A   Clear
10:55 AM 69.8 °F 51.8 °F 53% 30.01 in 10.0 mi NNW 12.7 mph 16.1 mph N/A   Clear
11:15 AM 69.8 °F 50.0 °F 49% 30.01 in 10.0 mi NNW 12.7 mph 16.1 mph N/A   Scattered Clouds
11:36 AM 69.8 °F 50.0 °F 49% 30.00 in 10.0 mi North 11.5 mph 16.1 mph N/A   Scattered Clouds
11:55 AM 71.6 °F 48.2 °F 43% 30.00 in 10.0 mi North 8.1 mph 18.4 mph N/A   Clear
12:15 PM 69.8 °F 50.0 °F 49% 30.01 in 10.0 mi NNW 11.5 mph 16.1 mph N/A   Scattered Clouds
12:36 PM 71.6 °F 46.4 °F 41% 30.01 in 10.0 mi NW 10.4 mph 16.1 mph N/A   Scattered Clouds
12:55 PM 71.6 °F 46.4 °F 41% 30.01 in 10.0 mi NW 10.4 mph - N/A   Scattered Clouds
1:15 PM 71.6 °F 46.4 °F 41% 30.01 in 10.0 mi NNW 10.4 mph 17.3 mph N/A   Scattered Clouds
1:35 PM 71.6 °F 46.4 °F 41% 30.01 in 10.0 mi NNW 9.2 mph 18.4 mph N/A   Scattered Clouds
1:55 PM 71.6 °F 46.4 °F 41% 30.01 in 10.0 mi NNW 10.4 mph - N/A   Scattered Clouds
2:15 PM 73.4 °F 46.4 °F 38% 30.01 in 10.0 mi North 11.5 mph - N/A   Mostly Cloudy
2:35 PM 71.6 °F 46.4 °F 41% 30.01 in 10.0 mi NNW 6.9 mph - N/A   Mostly Cloudy
2:55 PM 73.4 °F 48.2 °F 41% 30.02 in 10.0 mi North 5.8 mph - N/A   Mostly Cloudy
3:15 PM 71.6 °F 46.4 °F 41% 30.02 in 10.0 mi NW 6.9 mph - N/A   Scattered Clouds
3:35 PM 73.4 °F 48.2 °F 41% 30.03 in 10.0 mi NW 8.1 mph 17.3 mph N/A   Mostly Cloudy
3:55 PM 69.8 °F 48.2 °F 46% 30.02 in 10.0 mi NW 8.1 mph - N/A   Scattered Clouds
4:15 PM 73.4 °F 46.4 °F 38% 30.01 in 10.0 mi NW 6.9 mph - N/A   Clear
4:36 PM 73.4 °F 46.4 °F 38% 30.01 in 10.0 mi NNW 12.7 mph - N/A   Scattered Clouds
4:55 PM 71.6 °F 48.2 °F 43% 30.01 in 10.0 mi NNW 8.1 mph - N/A   Scattered Clouds
5:15 PM 71.6 °F 46.4 °F 41% 30.01 in 10.0 mi NNW 10.4 mph - N/A   Scattered Clouds
5:36 PM 75.2 °F 46.4 °F 36% 30.02 in 10.0 mi NW 8.1 mph - N/A   Scattered Clouds
5:55 PM 71.6 °F 46.4 °F 41% 30.02 in 10.0 mi NNW 8.1 mph - N/A   Clear
6:15 PM 75.2 °F 48.2 °F 38% 30.02 in 10.0 mi NW 8.1 mph 16.1 mph N/A   Clear
6:34 PM 73.4 °F 48.2 °F 41% 30.03 in 10.0 mi NNW 11.5 mph - N/A   Mostly Cloudy
6:55 PM 71.6 °F 48.2 °F 43% 30.03 in 10.0 mi NNW 6.9 mph - N/A   Scattered Clouds
7:15 PM 69.8 °F 48.2 °F 46% 30.04 in 10.0 mi NNW 6.9 mph - N/A   Clear
7:35 PM 68.0 °F 50.0 °F 52% 30.04 in 10.0 mi NNW 5.8 mph - N/A   Clear
7:55 PM 66.2 °F 50.0 °F 56% 30.04 in 10.0 mi Calm Calm - N/A   Clear
8:15 PM 62.6 °F 48.2 °F 59% 30.05 in 10.0 mi NNW 4.6 mph - N/A   Clear
8:35 PM 60.8 °F 50.0 °F 68% 30.05 in 10.0 mi Calm Calm - N/A   Clear
8:55 PM 57.2 °F 48.2 °F 72% 30.05 in 10.0 mi Calm Calm - N/A   Clear
9:15 PM 57.2 °F 48.2 °F 72% 30.07 in 10.0 mi Calm Calm - N/A   Scattered Clouds
9:35 PM 55.4 °F 48.2 °F 77% 30.08 in 10.0 mi Calm Calm - N/A   Scattered Clouds
9:55 PM 55.4 °F 48.2 °F 77% 30.08 in 10.0 mi Calm Calm - N/A   Clear
10:14 PM 55.4 °F 48.2 °F 77% 30.09 in 10.0 mi Calm Calm - N/A   Clear
10:33 PM 53.6 °F 48.2 °F 82% 30.09 in 10.0 mi Calm Calm - N/A   Clear
10:49 PM 53.6 °F 48.2 °F 82% 30.10 in 10.0 mi Calm Calm - N/A   Clear
11:15 PM 51.8 °F 46.4 °F 82% 30.10 in 10.0 mi Calm Calm - N/A   Clear
11:35 PM 51.8 °F 46.4 °F 82% 30.11 in 10.0 mi Calm Calm - N/A   Scattered Clouds
11:55 PM 51.8 °F 48.2 °F 88% 30.11 in 10.0 mi Calm Calm - N/A   Scattered Clouds